Simultaneous Nadir Overpasses (SNOs) Predictions

Prediction of SNOs near equator between AQUA and NPP Satellite Orbit:

Table of predicted SNOs near equator for the next 14.0 days since TLE Epoch: 1/4/2020
Index Date (AQUA) Time (AQUA) AQUA Lat,Lon Date (NPP) Time (NPP) NPP Lat,Lon Distance(km) Time Diff (sec)
1 01/06/2020 16:25:19 -4.96, 136.82 01/06/2020 16:15:40 -4.89, 136.53 33.41 579
2 01/06/2020 17:13:35 0.41, -54.59 01/06/2020 17:05:11 0.29, -55.14 63.38 504
3 01/06/2020 18:01:41 4.17, 114.05 01/06/2020 17:54:33 4.33, 113.22 93.37 428
4 01/09/2020 08:41:24 -3.53,-106.99 01/09/2020 08:32:09 -3.47,-107.37 43.36 555
5 01/09/2020 09:29:41 -0.97, 61.59 01/09/2020 09:21:40 -1.13, 60.95 73.28 481
6 01/12/2020 00:13:13 20.56,-162.52 01/12/2020 00:03:13 20.60,-162.90 39.82 600
7 01/12/2020 00:57:30 -2.16, 9.19 01/12/2020 00:48:38 -2.05, 8.72 53.24 532
8 01/12/2020 01:45:45 -2.46, 177.79 01/12/2020 01:38:08 -2.61, 177.06 82.97 457
9 01/14/2020 16:25:28 5.24, -43.25 01/14/2020 16:15:44 5.20, -43.54 32.73 584
10 01/14/2020 17:13:34 -0.67, 125.39 01/14/2020 17:05:06 -0.58, 124.83 63.18 508
11 01/14/2020 18:01:51 -3.82, -66.04 01/14/2020 17:54:37 -4.02, -66.85 92.79 434
12 01/17/2020 08:41:32 3.83, 72.94 01/17/2020 08:32:11 3.73, 72.57 42.65 561
13 01/17/2020 09:29:39 0.69,-118.44 01/17/2020 09:21:34 0.84,-119.08 73.12 485




NCC Satellite Simultaneous Nadir Overpasses (SNOs) Prediction Service
